COSMOS 2251 DEB, 35987

Orbit data source: Space-Track

COSMOS 2251 DEB, 35987 is space debris in LEO originally from a launch on Wed, 16 Jun 1993 UTC launched from the Plesetsk Missile And Space Complex (PKMTR). The debris from Iridium 33, an American commercial communications satellite, has been tracked extensively since its accidental collision with the defunct Russian satellite Cosmos 2251 in 2009. This event, occurring at high speed in low Earth orbit (LEO), generated thousands of pieces of space debris, significantly increasing the risk of further collisions. The Iridium 33 debris cloud has impacted space traffic management and orbital debris mitigation strategies, making it a subject of ongoing study in space situational awareness.

Loading next visibility...
Identifier
35987, 1993-036AWD
Orbit
LEO
Country
Flag of CISCIS
Related business
Manufacturer
Unknown
Mission
Spacecraft
Bus & Motor
Unknown
Mass
Unknown
Launch date (UTC)
1993-06-16 (33 years ago)
Launch vehicle
Unknown
Launch site
Plesetsk Missile And Space Complex (PKMTR)
Object type
Payload
Rocket body
Debris
Shape & HBR
Unknown shape, 0.1 m
Radar Cross Section
Small (<0.1 m²)

Expand to show TLE details & history
Last TLE update: 6 days ago

TLE from 6 days ago
0 COSMOS 2251 DEB
1 35987U 93036AWD 25348.21037201  .00003997  00000-0  11823-2 0  9996
2 35987  73.9997 323.9049 0045980  89.0828 271.5596 14.43139491610864
Epoch: 2025-12-14T05:02Z
TLE epoch observation values (Epoch: 2025-12-14T05:02:56.141Z)
Latitude
-0.00005°
Longitude
165.04441°
Altitude
750.021 km
Speed
7.48 km/s
True Right ascension
21h 35m 37s
True Declination
0° 00' 00"
Sunlit
Object was in daylight at epoch
Visualization orbit readout
Latitude
Unknown
Longitude
Unknown
Altitude
Unknown
Speed
Unknown
Apparent Right ascension
Unknown
Apparent Declination
Unknown
Sunlit
N/A
Visualization observer readout
Local Sidereal Time
10:13:39
Azimuth
Unknown
Elevation
Unknown
Doppler factor
Unknown
Orbital elements
Apogee altitude
778.519 km
Perigee altitude
713.008 km
Semi-major axis
7,123.901 km
Eccentricity
0.0046
Inclination
73.9997°
RAAN
323.9049°
Arg. of periapsis
89.0828°
True anomaly
271.03283°
Mean anomaly
271.5596°
Eccentric anomaly
271.29622°
Mean motion
3.60966 °/min
Orbital period
99.73 mins
BSTAR
0.0011823
Loading maneuver chart data...
Computing Atmospheric mass density...

Documentation

Showing up to 5 results
|